Location: Vancouver
(49.2500°N, 123.1330°W)
Time: 18:03:35
(UTC-07:00)

ERS-2 - Visible Passes

Search period start: 30 July 2015 00:00
Search period end: 09 August 2015 00:00
Orbit: 514 x 521 km, 98.5° (Epoch: 30 July)

Date Brightness Start Highest point End Pass type
(mag) Time Alt. Az. Time Alt. Az. Time Alt. Az.
30 Jul 3.8 01:09:20 10° N 01:12:33 27° WNW 01:13:33 23° W visible
30 Jul 3.8 23:21:22 10° NE 23:23:59 20° E 23:23:59 20° E visible
31 Jul 3.3 00:54:50 10° N 00:58:21 37° WNW 00:59:02 34° W visible
31 Jul 4.3 23:07:41 10° ENE 23:09:27 14° E 23:09:27 14° E visible
01 Aug 2.6 00:40:25 10° N 00:44:07 54° WNW 00:44:29 51° W visible
02 Aug 2.1 00:26:04 10° NNE 00:29:50 80° WNW 00:29:56 78° W visible
03 Aug 2.2 00:11:46 10° NNE 00:15:23 69° E 00:15:23 69° E visible
03 Aug 4.8 01:47:13 10° NNW 01:49:05 13° WNW 01:50:25 11° W visible
03 Aug 2.7 23:57:32 10° NNE 00:00:50 45° E 00:00:50 45° E visible
04 Aug 4.4 01:32:17 10° NNW 01:34:54 18° WNW 01:35:52 16° W visible
04 Aug 3.3 23:43:23 10° NNE 23:46:16 30° E 23:46:16 30° E visible
05 Aug 4.0 01:17:36 10° N 01:20:42 24° WNW 01:21:18 23° W visible
05 Aug 3.9 23:29:22 10° NE 23:31:41 21° ENE 23:31:41 21° ENE visible
06 Aug 3.5 01:03:02 10° N 01:06:27 33° WNW 01:06:43 33° WNW visible
06 Aug 4.3 23:15:32 10° NE 23:17:06 15° ENE 23:17:06 15° ENE visible
07 Aug 2.9 00:48:33 10° N 00:52:08 47° WNW 00:52:08 47° WNW visible
07 Aug 4.6 23:02:15 10° ENE 23:02:31 10° ENE 23:02:31 10° ENE visible
08 Aug 2.5 00:34:08 10° N 00:37:33 65° NNW 00:37:33 65° NNW visible
